Precipitable_Water
1.29 1.41 1.38 1.37 1.39 1.35 1.25 1.15 1.07 0.99 0.93 0.90 0.87 0.84 0.91 0.94 1.02 0.95 0.88 0.82 0.80 0.81 0.87 0.94 0.90 1.19 1.31 1.27 1.16 1.11 0.96 0.91 0.84 0.81 0.75 0.71 0.68 0.70 0.84 0.80 0.76 0.84 0.89
1.33 1.42 1.37 1.38 1.42 1.35 1.31 1.17 1.07 0.99 0.92 0.82 0.79 0.75 0.77 0.79 0.81 0.80 0.79 0.82 0.82 0.79 0.79 0.90 0.94 1.09 1.13 1.12 1.09 1.01 0.90 0.88 0.83 0.78 0.76 0.70 0.65 0.76 0.82 0.90 0.82 0.83 0.99
1.32 1.38 1.37 1.41 1.41 1.38 1.35 1.20 1.08 0.97 0.90 0.85 0.78 0.74 0.77 0.81 0.82 0.84 0.84 0.84 0.82 0.79 0.74 0.82 0.92 0.95 1.04 0.98 0.99 0.96 0.88 0.84 0.83 0.81 0.75 0.73 0.76 0.81 0.84 0.92 0.87 0.81 0.87
1.27 1.33 1.39 1.45 1.43 1.42 1.35 1.27 1.17 1.05 0.95 0.85 0.78 0.79 0.86 0.89 0.89 0.86 0.82 0.78 0.77 0.73 0.74 0.73 0.79 0.87 0.92 0.92 0.95 0.95 0.92 0.88 0.84 0.79 0.73 0.74 0.75 0.77 0.88 0.95 0.98 0.91 0.86
1.25 1.30 1.39 1.45 1.45 1.48 1.40 1.32 1.21 1.15 1.05 0.96 0.83 0.83 0.92 1.01 0.98 0.85 0.86 0.83 0.79 0.77 0.72 0.72 0.73 0.78 0.84 0.87 0.89 0.87 0.86 0.83 0.84 0.79 0.72 0.70 0.73 0.75 0.84 1.00 0.99 0.95 0.89
1.26 1.31 1.38 1.47 1.47 1.51 1.42 1.37 1.27 1.22 1.13 1.01 0.92 1.06 1.02 1.05 1.03 0.92 0.86 0.83 0.83 0.80 0.75 0.74 0.72 0.70 0.70 0.72 0.70 0.70 0.72 0.75 0.76 0.69 0.65 0.65 0.67 0.74 0.83 0.84 0.93 0.93 0.92
1.24 1.33 1.38 1.44 1.48 1.51 1.45 1.41 1.34 1.24 1.16 1.04 1.01 1.10 1.18 1.22 1.20 1.06 0.94 0.87 0.82 0.74 0.72 0.73 0.74 0.76 0.79 0.82 0.83 0.82 0.82 0.80 0.78 0.76 0.73 0.70 0.67 0.76 0.84 0.89 0.87 0.96 0.93
1.21 1.33 1.41 1.44 1.47 1.49 1.46 1.41 1.38 1.29 1.19 1.04 1.06 1.16 1.19 1.21 1.25 1.24 1.14 1.04 0.89 0.82 0.81 0.83 0.86 0.88 0.92 0.97 0.99 1.00 0.97 0.95 0.94 0.92 0.91 0.86 0.82 0.79 0.87 0.93 0.95 0.90 0.87
1.30 1.33 1.37 1.39 1.43 1.47 1.43 1.38 1.38 1.30 1.19 1.07 1.06 1.13 1.13 1.13 1.16 1.17 1.14 1.03 0.96 0.96 0.98 0.96 0.96 0.96 0.96 0.98 1.02 1.06 1.07 1.09 1.08 1.07 1.06 1.04 1.00 1.01 1.01 1.02 1.04 1.05 1.01
1.28 1.32 1.30 1.28 1.37 1.42 1.40 1.38 1.36 1.30 1.21 1.10 1.00 1.02 1.02 1.03 1.01 1.02 1.03 1.00 1.00 1.00 0.98 0.96 0.95 0.97 1.00 1.01 1.03 1.03 1.04 1.05 1.05 1.05 1.07 1.08 1.09 1.10 1.12 1.11 1.09 1.09 1.08
1.20 1.22 1.25 1.23 1.30 1.37 1.38 1.38 1.38 1.36 1.29 1.16 1.05 0.98 1.04 0.98 0.95 1.03 1.04 1.03 1.00 1.00 1.00 0.99 1.01 1.03 1.05 1.07 1.07 1.07 1.09 1.08 1.08 1.08 1.09 1.09 1.11 1.13 1.12 1.13 1.12 1.04 1.03
1.00 1.14 1.21 1.23 1.26 1.34 1.37 1.38 1.41 1.40 1.33 1.25 1.16 1.10 1.15 1.12 1.05 1.02 1.04 1.04 1.05 1.06 1.05 1.05 1.05 1.06 1.07 1.08 1.09 1.13 1.13 1.14 1.14 1.15 1.15 1.16 1.19 1.21 1.23 1.23 1.22 1.20 1.15
0.95 1.09 1.19 1.27 1.30 1.31 1.33 1.39 1.41 1.41 1.36 1.32 1.26 1.21 1.19 1.15 1.08 1.04 1.04 1.05 1.07 1.06 1.05 1.07 1.09 1.12 1.14 1.17 1.16 1.15 1.16 1.15 1.14 1.15 1.15 1.15 1.16 1.18 1.23 1.21 1.21 1.25 1.27
0.88 1.03 1.16 1.28 1.30 1.32 1.37 1.39 1.40 1.38 1.38 1.33 1.30 1.30 1.24 1.16 1.06 1.03 1.04 1.07 1.08 1.11 1.09 1.14 1.15 1.15 1.14 1.16 1.14 1.10 1.08 1.06 1.07 1.05 1.03 1.01 1.04 1.04 1.06 1.04 1.04 1.09 1.16
0.75 0.95 1.13 1.28 1.30 1.32 1.34 1.37 1.39 1.36 1.36 1.37 1.36 1.34 1.27 1.17 1.09 1.10 1.11 1.15 1.18 1.20 1.19 1.16 1.14 1.12 1.10 1.09 1.04 0.99 0.96 0.95 0.90 0.86 0.84 0.81 0.84 0.88 0.89 0.93 0.95 0.95 0.99
0.72 0.86 1.08 1.24 1.31 1.34 1.33 1.34 1.37 1.40 1.37 1.38 1.35 1.27 1.24 1.24 1.21 1.20 1.19 1.17 1.17 1.21 1.17 1.06 1.04 1.01 0.97 0.90 0.84 0.80 0.73 0.70 0.69 0.70 0.70 0.68 0.64 0.61 0.61 0.66 0.71 0.75 0.80
0.76 0.84 0.99 1.20 1.31 1.30 1.31 1.36 1.40 1.41 1.39 1.38 1.35 1.32 1.29 1.29 1.25 1.16 1.06 1.05 1.06 1.07 1.04 1.01 0.94 0.87 0.77 0.65 0.61 0.62 0.59 0.57 0.54 0.51 0.53 0.48 0.44 0.46 0.49 0.57 0.63 0.70 0.77
0.74 0.82 0.96 1.14 1.21 1.25 1.27 1.38 1.39 1.37 1.37 1.29 1.26 1.23 1.22 1.18 1.13 1.09 1.05 1.00 1.00 0.97 0.88 0.78 0.65 0.58 0.56 0.54 0.50 0.46 0.43 0.39 0.36 0.41 0.41 0.38 0.42 0.44 0.49 0.53 0.54 0.56 0.58
0.71 0.81 0.92 1.03 1.09 1.17 1.24 1.31 1.30 1.27 1.26 1.24 1.19 1.16 1.12 1.11 1.10 1.08 1.02 0.94 0.80 0.67 0.63 0.60 0.56 0.52 0.49 0.44 0.38 0.35 0.33 0.31 0.39 0.42 0.38 0.39 0.44 0.40 0.39 0.38 0.41 0.41 0.43
0.68 0.74 0.86 0.96 1.04 1.09 1.13 1.17 1.21 1.21 1.18 1.13 1.10 1.09 1.09 1.06 1.03 0.93 0.70 0.62 0.63 0.60 0.56 0.53 0.49 0.43 0.38 0.33 0.31 0.30 0.29 0.33 0.37 0.32 0.29 0.35 0.34 0.35 0.36 0.35 0.34 0.31 0.31
0.74 0.72 0.75 0.77 0.86 0.93 1.00 1.02 1.11 1.04 1.01 1.01 1.04 1.01 0.98 0.88 0.67 0.61 0.60 0.60 0.58 0.52 0.48 0.44 0.37 0.30 0.28 0.30 0.29 0.26 0.27 0.32 0.31 0.33 0.32 0.31 0.29 0.32 0.33 0.33 0.29 0.24 0.24
0.76 0.78 0.80 0.81 0.85 0.92 0.98 1.03 1.06 1.02 1.00 0.99 0.94 0.81 0.65 0.60 0.60 0.61 0.60 0.57 0.54 0.49 0.42 0.32 0.28 0.26 0.27 0.29 0.25 0.29 0.25 0.27 0.34 0.28 0.33 0.27 0.30 0.27 0.28 0.26 0.24 0.23 0.24
0.77 0.79 0.84 0.89 0.92 0.95 0.99 1.01 1.00 0.99 0.94 0.81 0.68 0.58 0.58 0.60 0.61 0.60 0.59 0.57 0.52 0.42 0.31 0.28 0.28 0.27 0.26 0.29 0.32 0.28 0.24 0.24 0.26 0.30 0.26 0.31 0.26 0.28 0.25 0.26 0.24 0.24 0.24
0.81 0.84 0.87 0.91 0.95 0.98 0.99 0.95 0.89 0.81 0.69 0.63 0.59 0.60 0.61 0.62 0.61 0.60 0.57 0.52 0.42 0.32 0.28 0.28 0.29 0.28 0.28 0.27 0.28 0.30 0.30 0.28 0.22 0.22 0.28 0.26 0.28 0.24 0.25 0.24 0.23 0.25 0.23
0.85 0.81 0.88 0.90 0.92 0.93 0.89 0.82 0.75 0.65 0.62 0.63 0.63 0.62 0.61 0.61 0.59 0.56 0.51 0.44 0.34 0.30 0.28 0.29 0.29 0.28 0.28 0.27 0.26 0.26 0.26 0.25 0.25 0.25 0.20 0.21 0.22 0.22 0.21 0.21 0.22 0.21 0.23
0.88 0.83 0.83 0.83 0.83 0.84 0.76 0.70 0.65 0.62 0.63 0.63 0.62 0.61 0.61 0.59 0.57 0.52 0.46 0.38 0.32 0.29 0.29 0.29 0.28 0.27 0.27 0.26 0.25 0.25 0.24 0.24 0.24 0.22 0.19 0.17 0.17 0.18 0.20 0.20 0.19 0.20 0.21
Wind_Speed
6 6 5 4 4 3 4 4 5 6 6 7 7 7 7 7 8 8 8 9 9 9 9 9 9 9 9 9 10 10 10 11 11 11 11 11 11 11 11 11 11 10 10
7 7 6 5 4 4 3 4 4 5 6 6 6 6 6 7 8 8 8 8 8 8 8 9 9 10 10 10 11 11 12 12 12 12 12 12 12 12 12 12 11 11 10
8 8 7 5 4 4 4 4 4 5 5 6 6 5 5 5 5 6 7 7 8 8 8 9 10 11 11 12 12 13 13 13 13 13 13 12 13 14 14 13 12 12 12
9 9 8 7 5 5 4 4 4 5 5 6 6 5 5 5 6 6 6 7 8 8 9 9 10 11 13 13 14 14 15 15 15 15 14 15 15 15 14 15 14 14 14
10 10 9 8 7 6 5 5 5 5 6 6 6 5 5 6 6 6 7 7 8 9 9 10 10 12 13 14 15 16 17 16 16 16 16 17 17 16 16 16 16 16 16
11 10 10 10 9 8 6 5 5 5 6 6 6 5 6 6 7 7 8 9 9 10 10 10 11 12 13 14 15 15 16 16 17 17 17 17 18 18 18 18 19 19 19
12 11 11 11 10 9 8 6 6 6 7 7 6 7 7 7 8 7 8 9 10 10 10 11 11 12 13 14 15 15 15 16 16 16 17 17 18 18 19 20 20 21 21
13 12 12 12 11 10 9 8 7 7 7 7 7 7 7 8 9 9 9 10 10 10 10 11 12 13 13 14 15 16 16 17 17 18 18 19 19 20 21 21 22 23 23
14 13 13 13 13 12 11 10 9 9 8 8 7 8 8 9 9 10 11 11 11 12 12 13 14 14 15 15 16 17 17 18 18 19 19 20 20 21 22 23 23 24 24
15 14 14 14 14 13 12 11 10 10 9 9 8 9 9 9 10 10 10 11 12 13 14 14 15 16 16 17 18 19 19 20 21 21 22 23 23 24 25 25 25 27 27
16 16 15 15 15 14 14 13 12 11 10 10 9 9 9 10 10 10 10 11 12 12 13 14 14 15 16 18 19 19 20 21 22 23 23 24 25 26 26 26 27 27 28
17 17 16 16 16 15 14 14 13 12 11 11 10 10 10 10 10 11 11 12 12 12 13 14 15 16 17 18 20 21 22 23 24 24 25 26 27 27 27 27 27 27 27
19 18 18 17 16 15 14 14 14 13 12 12 12 11 11 11 12 12 12 13 13 15 15 16 16 17 18 20 21 22 23 23 23 24 24 25 26 27 28 28 28 28 28
21 21 19 19 17 16 15 15 14 13 13 13 13 13 13 13 13 13 14 14 15 16 17 17 18 19 20 21 22 23 23 23 23 24 25 26 26 27 27 28 29 29 30
21 22 21 20 19 18 17 16 15 15 14 14 14 15 15 15 15 15 15 16 17 17 18 18 18 20 22 23 23 24 24 24 25 25 26 26 27 27 28 29 29 30 30
22 23 23 22 20 19 18 17 16 16 15 15 14 14 14 15 16 17 18 18 18 18 19 20 21 23 23 24 25 25 25 25 27 27 28 28 28 29 29 29 30 30 30
22 21 23 23 21 20 18 17 16 15 15 14 14 13 14 15 16 17 18 18 19 19 21 22 23 24 25 25 26 26 27 28 29 29 29 29 29 29 29 30 30 30 30
21 20 21 23 22 20 18 17 16 14 13 12 12 12 13 14 14 15 15 16 18 20 22 23 24 25 26 27 28 29 29 29 29 29 28 29 28 29 29 30 31 32 33
21 20 21 21 21 19 18 17 15 13 13 12 13 13 13 14 14 14 15 16 17 18 20 23 24 26 27 29 30 29 30 29 28 27 28 29 29 31 31 33 34 35 36
19 20 21 22 21 19 18 17 15 13 13 13 13 14 14 13 13 14 15 17 19 21 23 25 27 28 28 29 29 30 30 28 27 29 30 30 33 34 35 35 36 38 40
17 18 19 21 21 20 18 17 16 14 13 12 13 12 12 12 13 15 17 19 22 24 25 27 28 28 28 29 29 30 28 28 29 29 31 33 34 36 37 38 41 43 43
16 16 16 17 18 18 18 16 16 14 13 12 12 11 11 12 14 16 19 22 24 26 27 28 27 27 28 29 29 29 29 30 30 37 33 37 37 39 40 43 44 45 45
16 16 16 16 16 16 16 15 14 13 12 11 10 11 12 14 16 19 21 24 26 27 27 27 26 27 28 29 30 30 32 33 38 34 40 38 43 41 44 44 46 46 47
17 16 17 16 16 16 16 15 14 13 12 11 11 12 14 16 18 21 23 25 26 27 26 27 27 29 30 31 33 35 36 39 39 42 40 44 42 47 46 47 48 48 52
18 17 17 17 16 16 15 14 13 11 11 11 12 13 15 18 20 23 24 26 26 27 27 28 30 31 33 34 36 37 39 41 43 45 49 47 48 47 49 49 51 53 54
18 17 17 17 17 16 15 14 13 12 11 12 13 15 18 20 22 24 26 26 27 28 29 30 32 34 36 37 39 40 41 42 43 45 49 52 53 53 52 54 54 56 57
Wind_Direction
239 227 226 241 258 270 285 286 288 297 300 298 293 289 277 269 260 261 263 269 267 272 264 261 249 244 241 248 258 263 279 282 280 284 287 281 281 281 285 289 292 295 290
232 226 230 237 252 271 278 291 296 303 306 308 304 294 283 270 262 262 263 263 269 271 266 257 249 245 248 255 263 268 278 278 281 282 286 283 279 281 281 284 287 288 295
228 226 232 235 247 265 273 292 299 307 308 310 310 302 291 276 266 261 261 263 268 270 269 260 253 252 256 262 267 272 278 279 280 282 283 280 281 283 275 277 283 282 283
231 229 233 237 246 258 272 283 299 309 312 309 304 300 292 278 263 265 267 267 270 272 268 264 259 258 261 266 270 274 278 280 278 281 281 279 280 281 275 274 277 280 276
233 230 235 238 245 253 267 274 294 308 312 309 304 295 293 286 266 263 271 271 274 276 273 268 265 266 267 270 273 276 278 278 279 279 280 280 279 279 277 275 275 278 275
234 233 236 240 246 251 260 269 290 306 308 307 300 292 293 293 275 269 270 273 276 276 274 272 271 271 273 275 278 280 280 279 279 281 282 281 279 277 278 277 275 276 276
236 237 238 240 243 247 254 265 283 298 307 304 295 290 290 286 285 274 276 279 279 277 276 276 275 276 277 279 281 282 282 282 281 283 284 284 283 279 279 278 277 275 276
235 238 240 241 243 247 252 260 275 290 300 301 291 290 296 288 281 275 277 279 280 279 280 281 280 281 282 284 284 284 284 284 284 284 285 285 284 281 280 279 278 277 277
236 240 243 243 244 247 251 257 267 281 290 294 290 290 291 290 286 280 279 278 279 279 281 283 283 283 284 285 286 286 286 286 285 285 286 285 284 283 282 281 279 278 278
239 242 245 244 245 248 251 255 263 275 282 286 289 289 289 289 288 285 282 281 282 283 283 284 284 285 285 286 287 286 286 286 286 285 285 285 284 284 283 281 281 279 278
241 243 245 245 244 248 251 253 258 268 274 278 283 287 291 290 288 286 285 286 287 288 289 289 289 288 288 289 289 289 288 288 287 286 285 285 285 285 284 282 283 282 279
242 243 245 244 244 246 250 252 256 264 268 272 277 281 287 291 290 287 285 285 287 289 291 292 292 292 293 292 292 291 290 290 288 288 287 286 286 285 285 284 284 283 280
244 243 242 243 243 244 249 251 255 262 265 268 272 276 282 286 289 288 287 287 287 290 292 294 294 295 295 295 295 294 293 293 291 290 289 288 288 286 285 286 285 284 282
246 243 241 241 242 244 249 253 255 261 262 268 271 275 280 283 286 287 288 289 289 291 292 293 295 295 296 297 297 297 296 294 293 292 291 291 289 288 288 287 286 285 283
245 242 239 239 242 245 248 252 254 259 262 268 272 274 278 281 283 285 287 288 291 292 293 295 296 296 297 299 299 297 296 295 294 293 293 293 291 290 289 288 288 287 286
247 243 239 239 241 243 246 249 253 259 262 266 271 275 277 282 284 284 286 287 289 291 293 295 296 297 298 298 298 297 297 296 295 294 293 293 292 291 291 289 288 288 287
247 244 238 238 240 242 245 248 253 259 258 261 270 276 281 286 289 288 287 287 289 291 293 295 296 297 298 298 298 297 296 295 294 294 293 293 292 291 291 290 289 288 287
244 241 237 236 238 240 243 245 249 253 250 259 269 277 284 291 294 294 295 297 294 293 294 297 298 297 299 300 299 298 297 296 295 294 293 294 293 293 292 291 291 289 288
243 239 235 234 233 236 239 240 241 244 250 259 271 278 284 291 294 295 298 301 303 302 302 302 301 300 300 300 300 299 298 297 295 294 295 295 294 295 293 293 292 291 290
241 238 235 234 233 234 234 233 235 242 252 264 271 281 283 287 292 296 300 303 304 304 304 303 303 302 300 302 300 300 299 295 294 295 296 295 296 295 294 294 292 292 291
239 236 235 231 229 228 228 230 234 243 253 263 273 281 284 287 294 299 302 305 307 307 307 306 305 304 302 305 301 301 299 296 294 296 298 297 297 296 296 294 295 294 292
236 233 227 221 219 222 224 228 234 240 252 262 271 277 283 291 298 302 305 308 309 309 309 308 308 306 305 307 304 302 300 299 295 299 296 299 298 298 296 296 296 295 293
231 225 218 215 215 217 218 223 229 237 250 259 265 275 286 295 300 305 307 308 310 310 311 310 310 310 307 307 308 305 302 298 300 296 299 297 300 298 298 296 296 295 294
226 220 214 212 213 216 219 224 230 238 245 256 265 276 288 297 302 306 308 309 310 311 311 310 310 310 309 308 307 306 304 302 301 299 298 300 298 299 298 297 296 295 295
220 217 213 212 213 217 221 223 225 232 242 256 270 282 291 298 304 308 309 310 311 311 311 311 310 310 309 308 307 306 304 303 301 300 301 301 300 299 299 298 297 296 295
216 213 211 211 215 218 219 221 225 232 246 261 275 286 294 299 304 307 309 310 310 310 310 310 310 310 309 309 308 307 305 304 303 302 301 302 301 301 300 299 298 297 296